Time,TemperatureF,DewpointF,PressureIn,WindDirection,WindDirectionDegrees,WindSpeedMPH,WindSpeedGustMPH,Humidity,HourlyPrecipIn,Conditions,Clouds,dailyrainin,SolarRadiationWatts/m^2,SoftwareType,DateUTC
2013-10-14 19:47:00,37.2,20.8,30.17,South,178,0.0,-999.0,51,-99.99,,,0.00,0.0,meteohub,2013-10-15 02:47:00,
2013-10-14 19:57:00,36.5,20.5,30.17,South,178,0.0,2.0,52,0.00,,,0.00,0.0,meteohub,2013-10-15 02:57:00,
2013-10-14 20:02:00,36.1,20.7,30.17,South,178,0.0,1.0,53,0.00,,,0.00,0.0,meteohub,2013-10-15 03:02:00,
2013-10-14 20:07:00,35.8,20.3,30.18,South,178,0.0,1.0,53,0.00,,,0.00,0.0,meteohub,2013-10-15 03:07:00,
2013-10-14 20:12:00,35.2,20.3,30.17,South,178,0.0,1.0,54,0.00,,,0.00,0.0,meteohub,2013-10-15 03:12:00,
2013-10-14 20:17:00,34.9,19.9,30.18,South,178,0.0,1.0,54,0.00,,,0.00,0.0,meteohub,2013-10-15 03:17:00,
2013-10-14 20:22:00,34.3,19.8,30.18,South,178,0.0,0.0,55,0.00,,,0.00,0.0,meteohub,2013-10-15 03:22:00,
2013-10-14 20:27:00,34.3,19.8,30.18,South,178,0.0,0.0,55,0.00,,,0.00,0.0,meteohub,2013-10-15 03:27:00,
2013-10-14 20:32:00,34.0,19.9,30.18,South,178,1.0,1.0,56,0.00,,,0.00,0.0,meteohub,2013-10-15 03:32:00,
2013-10-14 20:42:00,33.4,19.8,30.18,South,178,0.0,2.0,57,0.00,,,0.00,0.0,meteohub,2013-10-15 03:42:00,
2013-10-14 20:52:00,32.7,19.2,30.19,South,178,0.0,2.0,57,0.00,,,0.00,0.0,meteohub,2013-10-15 03:52:00,
2013-10-14 21:02:00,32.4,19.2,30.19,South,178,0.0,2.0,58,0.00,,,0.00,0.0,meteohub,2013-10-15 04:02:00,
2013-10-14 21:07:00,32.2,19.4,30.19,South,178,0.0,2.0,59,0.00,,,0.00,0.0,meteohub,2013-10-15 04:07:00,
2013-10-14 21:12:00,31.8,19.0,30.19,South,178,0.0,1.0,59,0.00,,,0.00,0.0,meteohub,2013-10-15 04:12:00,
2013-10-14 21:17:00,31.6,19.0,30.19,South,178,0.0,1.0,59,0.00,,,0.00,0.0,meteohub,2013-10-15 04:17:00,
2013-10-14 21:22:00,31.5,19.2,30.19,South,178,0.0,1.0,60,0.00,,,0.00,0.0,meteohub,2013-10-15 04:22:00,
2013-10-14 21:27:00,31.3,19.0,30.19,South,178,0.0,1.0,60,0.00,,,0.00,0.0,meteohub,2013-10-15 04:27:00,
2013-10-14 21:32:00,31.1,18.9,30.19,South,178,0.0,0.0,60,0.00,,,0.00,0.0,meteohub,2013-10-15 04:32:00,
2013-10-14 21:37:00,30.7,18.9,30.19,South,178,0.0,1.0,61,0.00,,,0.00,0.0,meteohub,2013-10-15 04:37:00,
2013-10-14 21:42:00,30.6,18.7,30.19,South,178,0.0,1.0,61,0.00,,,0.00,0.0,meteohub,2013-10-15 04:42:00,
2013-10-14 21:47:00,30.4,18.9,30.19,South,178,0.0,1.0,62,0.00,,,0.00,0.0,meteohub,2013-10-15 04:47:00,
2013-10-14 21:52:00,30.4,18.9,30.19,South,178,0.0,0.0,62,0.00,,,0.00,0.0,meteohub,2013-10-15 04:52:00,
2013-10-14 22:02:00,30.0,18.5,30.20,South,178,0.0,1.0,62,0.00,,,0.00,0.0,meteohub,2013-10-15 05:02:00,
2013-10-14 22:12:00,29.8,18.9,30.20,South,178,0.0,2.0,63,0.00,,,0.00,0.0,meteohub,2013-10-15 05:12:00,
2013-10-14 22:17:00,29.7,18.7,30.20,South,178,0.0,2.0,63,0.00,,,0.00,0.0,meteohub,2013-10-15 05:17:00,
2013-10-14 22:22:00,29.5,18.5,30.19,South,178,0.0,0.0,63,0.00,,,0.00,0.0,meteohub,2013-10-15 05:22:00,
2013-10-14 22:27:00,29.1,18.5,30.19,South,178,0.0,0.0,64,0.00,,,0.00,0.0,meteohub,2013-10-15 05:27:00,
2013-10-14 22:32:00,28.9,18.7,30.20,South,178,0.0,0.0,65,0.00,,,0.00,0.0,meteohub,2013-10-15 05:32:00,
2013-10-14 22:37:00,28.9,18.7,30.20,South,178,0.0,1.0,65,0.00,,,0.00,0.0,meteohub,2013-10-15 05:37:00,
2013-10-14 22:47:00,28.8,18.5,30.19,South,178,0.0,1.0,65,0.00,,,0.00,0.0,meteohub,2013-10-15 05:47:00,
2013-10-14 22:52:00,28.6,18.0,30.20,South,178,0.0,1.0,64,0.00,,,0.00,0.0,meteohub,2013-10-15 05:52:00,
2013-10-14 22:57:00,28.6,18.3,30.19,South,178,0.0,1.0,65,0.00,,,0.00,0.0,meteohub,2013-10-15 05:57:00,
2013-10-14 23:07:00,28.2,18.3,30.19,South,178,0.0,1.0,66,0.00,,,0.00,0.0,meteohub,2013-10-15 06:07:00,
2013-10-14 23:12:00,28.2,18.3,30.19,South,178,1.0,1.0,66,0.00,,,0.00,0.0,meteohub,2013-10-15 06:12:00,
2013-10-14 23:22:00,28.0,18.5,30.20,South,178,0.0,1.0,67,0.00,,,0.00,0.0,meteohub,2013-10-15 06:22:00,
2013-10-14 23:32:00,27.9,18.7,30.19,South,178,0.0,0.0,68,0.00,,,0.00,0.0,meteohub,2013-10-15 06:32:00,
2013-10-14 23:42:00,27.7,18.5,30.19,South,178,0.0,1.0,68,0.00,,,0.00,0.0,meteohub,2013-10-15 06:42:00,
2013-10-14 23:47:00,27.5,18.3,30.19,South,178,0.0,1.0,68,0.00,,,0.00,0.0,meteohub,2013-10-15 06:47:00,
2013-10-14 23:52:00,27.3,18.5,30.19,South,178,0.0,1.0,69,0.00,,,0.00,0.0,meteohub,2013-10-15 06:52:00,
2013-10-14 23:57:00,27.3,18.5,30.19,South,178,0.0,1.0,69,0.00,,,0.00,0.0,meteohub,2013-10-15 06:57:00,